Flag for Austria Weather past 2 weeks in Linz, Upper Austria, Austria

Now
50 °F

Light rain. Broken clouds.


Feels Like: 47 °F
Forecast: 41 / 51 °F
Wind: 8 mph from West

Location: Linz / Hoersching-Flughafen

Current Time: Oct 23, 2014 at 3:30:55 PM

Latest Report: Oct 23, 2014 at 2:50 PM


Visibility: N/A

Pressure: 30.01 "Hg

Humidity: 94%

Dew point: 48 °F

Location of LinzLocation

Historic Weather in Linz — Graph

°F

Linz temperature yesterday

Maximum temperature yesterday: 48 °F (at 12:20 AM)
Minimum temperature yesterday: 41 °F (at 1:20 PM)
Average temperature yesterday: 45 °F

Past Weeks' High & Low Weather Summary

 TemperatureHumidityPressure
High70 °F (Oct 12, 2:50 PM)100% (Oct 9, 12:20 AM)30.30 "Hg (Oct 9, 12:20 AM)
Low39 °F (Oct 23, 1:20 AM)53% (Oct 14, 3:50 PM)29.59 "Hg (Oct 21, 10:50 PM)
Average55 °F90%29.96 "Hg
* Reported Oct 8 2:20 PM — Oct 23 2:20 PM, Linz, Weather by CustomWeather, © 2014

Note: Actual official high and low records may vary slightly from our data, if they occured in-between our weather recording intervals... More about our weather records

Advertising

Linz weather history for previous 24 hours

 ConditionsComfort  
Time TempWeatherWind HumidityBarometerVisibility
2:20 PM
Oct 23
50 °FRain. Broken clouds.10 mph94%30.01 "HgN/A
1:50 PM50 °FLight rain. Broken clouds.12 mph88%30.01 "HgN/A
1:20 PM50 °FPartly sunny.13 mph88%29.98 "HgN/A
12:50 PM50 °FBroken clouds.12 mph88%29.98 "HgN/A
12:20 PM50 °FBroken clouds.10 mph94%29.98 "HgN/A
11:50 AM50 °FBroken clouds.10 mph94%29.98 "HgN/A
11:20 AM50 °FBroken clouds.10 mph94%29.95 "HgN/A
10:50 AM50 °FBroken clouds.10 mph88%29.95 "HgN/A
10:20 AM50 °FLight rain. Broken clouds.10 mph88%29.92 "HgN/A
9:50 AM50 °FLight rain. Broken clouds.10 mph88%29.92 "HgN/A
9:20 AM48 °FLight rain. Partly sunny.13 mph94%29.89 "HgN/A
8:50 AM48 °FRain. Partly sunny.13 mph94%29.89 "HgN/A
8:20 AM48 °FLight rain. Partly cloudy.15 mph94%29.86 "HgN/A
7:50 AM48 °FLight rain. Partly cloudy.15 mph94%29.83 "HgN/A
7:20 AM48 °FRain. Mostly cloudy.14 mph87%29.83 "HgN/A
6:50 AM48 °FLight rain. Mostly cloudy.14 mph87%29.80 "HgN/A
6:20 AM46 °FRain. Mostly cloudy.14 mph93%29.80 "HgN/A
5:50 AM46 °FRain. Partly cloudy.9 mph93%29.80 "HgN/A
5:20 AM46 °FRain. Passing clouds.8 mph93%29.80 "HgN/A
4:50 AM45 °FRain. Passing clouds.10 mph100%29.80 "HgN/A
4:20 AM41 °FLight rain. Low clouds.8 mph100%29.80 "HgN/A
3:50 AM41 °FLight rain. Low clouds.10 mph93%29.80 "HgN/A
3:20 AM41 °FLight rain. Passing clouds.12 mph93%29.80 "HgN/A
2:50 AM39 °FLight rain. Passing clouds.9 mph93%29.83 "HgN/A
2:20 AM39 °FLight rain. Passing clouds.10 mph93%29.83 "HgN/A
1:50 AM39 °FLight rain. Passing clouds.10 mph93%29.83 "HgN/A
1:20 AM39 °FLight rain. Passing clouds.12 mph93%29.83 "HgN/A
12:50 AM41 °FSprinkles. Passing clouds.14 mph93%29.83 "Hg3 mi
12:20 AM41 °FSprinkles. Passing clouds.17 mph93%29.83 "HgN/A
11:50 PM
Oct 22
41 °FPassing clouds.17 mph93%29.83 "HgN/A
11:20 PM41 °FSprinkles. Passing clouds.18 mph93%29.83 "HgN/A
10:50 PM41 °FSprinkles. Passing clouds.20 mph87%29.83 "HgN/A
10:20 PM41 °FSprinkles. Passing clouds.22 mph87%29.86 "HgN/A
9:50 PM43 °FSprinkles. Partly cloudy.24 mph81%29.86 "HgN/A
9:20 PM43 °FSprinkles. Partly cloudy.20 mph87%29.86 "HgN/A
8:50 PM43 °FSprinkles. Partly cloudy.23 mph81%29.86 "HgN/A
8:20 PM43 °FSprinkles. Passing clouds.22 mph87%29.86 "HgN/A
7:50 PM43 °FSprinkles. Passing clouds.22 mph87%29.86 "HgN/A
7:20 PM43 °FSprinkles. Partly cloudy.22 mph87%29.86 "HgN/A
6:50 PM43 °FSprinkles. Broken clouds.24 mph81%29.86 "HgN/A
6:20 PM43 °FBroken clouds.24 mph81%29.86 "HgN/A
5:50 PM43 °FBroken clouds.23 mph87%29.86 "HgN/A
5:20 PM43 °FLight rain. Partly sunny.28 mph81%29.86 "HgN/A
4:50 PM45 °FLight rain. Broken clouds.29 mph81%29.86 "HgN/A
4:20 PM45 °FLight rain. Broken clouds.25 mph81%29.86 "HgN/A
3:50 PM45 °FLight rain. Partly sunny.25 mph81%29.86 "HgN/A
3:20 PM45 °FLight rain. Partly sunny.25 mph81%29.86 "HgN/A
Weather by CustomWeather, © 2014

See weather overviewHow to use our weather pages